[{"OBJECT_NAME":"IRIDIUM 33 DEB","OBJECT_ID":"1997-051DG","EPOCH":"2026-09-12T04:53:28.682016","MEAN_MOTION":14.3639585,"ECCENTRICITY":0.0079532,"INCLINATION":86.1955,"RA_OF_ASC_NODE":240.4658,"ARG_OF_PERICENTER":185.397,"MEAN_ANOMALY":174.6379,"EPHEMERIS_TYPE":0,"CLASSIFICATION_TYPE":"U","NORAD_CAT_ID":34097,"ELEMENT_SET_NO":999,"REV_AT_EPOCH":91043,"BSTAR":0.00055568,"MEAN_MOTION_DOT":0.00001706,"MEAN_MOTION_DDOT":0},{"OBJECT_NAME":"IRIDIUM 33 DEB","OBJECT_ID":"1997-051DY","EPOCH":"2026-09-11T20:02:19.016448","MEAN_MOTION":14.44009706,"ECCENTRICITY":0.00489267,"INCLINATION":86.2129,"RA_OF_ASC_NODE":210.6779,"ARG_OF_PERICENTER":273.113,"MEAN_ANOMALY":86.4473,"EPHEMERIS_TYPE":0,"CLASSIFICATION_TYPE":"U","NORAD_CAT_ID":34145,"ELEMENT_SET_NO":999,"REV_AT_EPOCH":91577,"BSTAR":0.00059888005,"MEAN_MOTION_DOT":0.00002096,"MEAN_MOTION_DDOT":0},{"OBJECT_NAME":"IRIDIUM 33 DEB","OBJECT_ID":"1997-051DZ","EPOCH":"2026-09-11T23:42:50.893056","MEAN_MOTION":14.50509641,"ECCENTRICITY":0.0028193,"INCLINATION":86.2811,"RA_OF_ASC_NODE":228.9013,"ARG_OF_PERICENTER":38.4268,"MEAN_ANOMALY":34.4337,"EPHEMERIS_TYPE":0,"CLASSIFICATION_TYPE":"U","NORAD_CAT_ID":34146,"ELEMENT_SET_NO":999,"REV_AT_EPOCH":92066,"BSTAR":0.00054708,"MEAN_MOTION_DOT":0.00002172,"MEAN_MOTION_DDOT":0},{"OBJECT_NAME":"IRIDIUM 33 DEB","OBJECT_ID":"1997-051EN","EPOCH":"2026-09-12T01:04:19.001568","MEAN_MOTION":14.39075374,"ECCENTRICITY":0.0030028,"INCLINATION":86.3474,"RA_OF_ASC_NODE":291.6792,"ARG_OF_PERICENTER":108.8813,"MEAN_ANOMALY":251.5646,"EPHEMERIS_TYPE":0,"CLASSIFICATION_TYPE":"U","NORAD_CAT_ID":34159,"ELEMENT_SET_NO":999,"REV_AT_EPOCH":91889,"BSTAR":0.00018741,"MEAN_MOTION_DOT":0.00000602,"MEAN_MOTION_DDOT":0},{"OBJECT_NAME":"IRIDIUM 33 DEB","OBJECT_ID":"1997-051ES","EPOCH":"2026-09-11T23:40:41.147040","MEAN_MOTION":14.46005044,"ECCENTRICITY":0.0019277,"INCLINATION":86.3227,"RA_OF_ASC_NODE":244.1545,"ARG_OF_PERICENTER":317.4342,"MEAN_ANOMALY":95.9656,"EPHEMERIS_TYPE":0,"CLASSIFICATION_TYPE":"U","NORAD_CAT_ID":34350,"ELEMENT_SET_NO":999,"REV_AT_EPOCH":92241,"BSTAR":0.00020603,"MEAN_MOTION_DOT":0.00000755,"MEAN_MOTION_DDOT":0},{"OBJECT_NAME":"IRIDIUM 33 DEB","OBJECT_ID":"1997-051FJ","EPOCH":"2026-09-12T01:08:50.394336","MEAN_MOTION":14.56333728,"ECCENTRICITY":0.0017192,"INCLINATION":86.3648,"RA_OF_ASC_NODE":290.1924,"ARG_OF_PERICENTER":302.9708,"MEAN_ANOMALY":83.8947,"EPHEMERIS_TYPE":0,"CLASSIFICATION_TYPE":"U","NORAD_CAT_ID":34366,"ELEMENT_SET_NO":999,"REV_AT_EPOCH":92157,"BSTAR":0.00050657,"MEAN_MOTION_DOT":0.00002269,"MEAN_MOTION_DDOT":0},{"OBJECT_NAME":"IRIDIUM 33 DEB","OBJECT_ID":"1997-051FT","EPOCH":"2026-09-11T23:01:38.258112","MEAN_MOTION":14.18436826,"ECCENTRICITY":0.0100787,"INCLINATION":86.4238,"RA_OF_ASC_NODE":72.4761,"ARG_OF_PERICENTER":339.7078,"MEAN_ANOMALY":151.0201,"EPHEMERIS_TYPE":0,"CLASSIFICATION_TYPE":"U","NORAD_CAT_ID":34375,"ELEMENT_SET_NO":999,"REV_AT_EPOCH":90584,"BSTAR":0.00020888,"MEAN_MOTION_DOT":0.00000471,"MEAN_MOTION_DDOT":0},{"OBJECT_NAME":"IRIDIUM 33 DEB","OBJECT_ID":"1997-051FU","EPOCH":"2026-09-12T03:23:42.709056","MEAN_MOTION":14.67079349,"ECCENTRICITY":0.0022192,"INCLINATION":86.2904,"RA_OF_ASC_NODE":243.0348,"ARG_OF_PERICENTER":323.4516,"MEAN_ANOMALY":36.5183,"EPHEMERIS_TYPE":0,"CLASSIFICATION_TYPE":"U","NORAD_CAT_ID":34376,"ELEMENT_SET_NO":999,"REV_AT_EPOCH":92010,"BSTAR":0.0009595,"MEAN_MOTION_DOT":0.00005427,"MEAN_MOTION_DDOT":0},{"OBJECT_NAME":"IRIDIUM 33 DEB","OBJECT_ID":"1997-051GB","EPOCH":"2026-09-11T17:36:32.143968","MEAN_MOTION":15.12493346,"ECCENTRICITY":0.00063456,"INCLINATION":86.3752,"RA_OF_ASC_NODE":244.012,"ARG_OF_PERICENTER":152.7679,"MEAN_ANOMALY":22.009,"EPHEMERIS_TYPE":0,"CLASSIFICATION_TYPE":"U","NORAD_CAT_ID":34486,"ELEMENT_SET_NO":999,"REV_AT_EPOCH":93091,"BSTAR":0.0015845497,"MEAN_MOTION_DOT":0.00027678,"MEAN_MOTION_DDOT":0},{"OBJECT_NAME":"IRIDIUM 33 DEB","OBJECT_ID":"1997-051GC","EPOCH":"2026-09-11T10:53:19.598784","MEAN_MOTION":14.43559094,"ECCENTRICITY":0.00290281,"INCLINATION":86.3377,"RA_OF_ASC_NODE":254.9229,"ARG_OF_PERICENTER":311.3426,"MEAN_ANOMALY":202.2986,"EPHEMERIS_TYPE":0,"CLASSIFICATION_TYPE":"U","NORAD_CAT_ID":34487,"ELEMENT_SET_NO":999,"REV_AT_EPOCH":92182,"BSTAR":0.00011067459,"MEAN_MOTION_DOT":0.00000396,"MEAN_MOTION_DDOT":0},{"OBJECT_NAME":"IRIDIUM 33 DEB","OBJECT_ID":"1997-051GH","EPOCH":"2026-09-11T08:57:40.102848","MEAN_MOTION":14.3015075,"ECCENTRICITY":0.01806752,"INCLINATION":86.4698,"RA_OF_ASC_NODE":223.9524,"ARG_OF_PERICENTER":77.7628,"MEAN_ANOMALY":72.4202,"EPHEMERIS_TYPE":0,"CLASSIFICATION_TYPE":"U","NORAD_CAT_ID":34492,"ELEMENT_SET_NO":999,"REV_AT_EPOCH":88950,"BSTAR":0.0026514239,"MEAN_MOTION_DOT":0.00008217,"MEAN_MOTION_DDOT":0},{"OBJECT_NAME":"IRIDIUM 33 DEB","OBJECT_ID":"1997-051GN","EPOCH":"2026-09-11T02:24:57.167424","MEAN_MOTION":14.28246801,"ECCENTRICITY":0.0079237,"INCLINATION":86.2752,"RA_OF_ASC_NODE":295.9943,"ARG_OF_PERICENTER":178.6413,"MEAN_ANOMALY":211.0024,"EPHEMERIS_TYPE":0,"CLASSIFICATION_TYPE":"U","NORAD_CAT_ID":34497,"ELEMENT_SET_NO":999,"REV_AT_EPOCH":90770,"BSTAR":0.00031799072,"MEAN_MOTION_DOT":0.00000839,"MEAN_MOTION_DDOT":0},{"OBJECT_NAME":"IRIDIUM 33 DEB","OBJECT_ID":"1997-051GZ","EPOCH":"2026-09-11T17:58:13.194048","MEAN_MOTION":14.40072089,"ECCENTRICITY":0.00623162,"INCLINATION":86.3753,"RA_OF_ASC_NODE":346.7028,"ARG_OF_PERICENTER":357.8993,"MEAN_ANOMALY":2.1934,"EPHEMERIS_TYPE":0,"CLASSIFICATION_TYPE":"U","NORAD_CAT_ID":34508,"ELEMENT_SET_NO":999,"REV_AT_EPOCH":91236,"BSTAR":0.00051180569,"MEAN_MOTION_DOT":0.0000167,"MEAN_MOTION_DDOT":0},{"OBJECT_NAME":"IRIDIUM 33 DEB","OBJECT_ID":"1997-051HN","EPOCH":"2026-09-11T18:30:12.284928","MEAN_MOTION":14.66402044,"ECCENTRICITY":0.00054433,"INCLINATION":86.3725,"RA_OF_ASC_NODE":269.9862,"ARG_OF_PERICENTER":72.7175,"MEAN_ANOMALY":287.4634,"EPHEMERIS_TYPE":0,"CLASSIFICATION_TYPE":"U","NORAD_CAT_ID":34521,"ELEMENT_SET_NO":999,"REV_AT_EPOCH":92470,"BSTAR":0.00047315929,"MEAN_MOTION_DOT":0.00002638,"MEAN_MOTION_DDOT":0},{"OBJECT_NAME":"IRIDIUM 33 DEB","OBJECT_ID":"1997-051HS","EPOCH":"2026-09-11T21:09:14.339808","MEAN_MOTION":14.43502255,"ECCENTRICITY":0.00021105,"INCLINATION":86.3691,"RA_OF_ASC_NODE":290.2211,"ARG_OF_PERICENTER":262.3654,"MEAN_ANOMALY":272.3889,"EPHEMERIS_TYPE":0,"CLASSIFICATION_TYPE":"U","NORAD_CAT_ID":34525,"ELEMENT_SET_NO":999,"REV_AT_EPOCH":92027,"BSTAR":0.00017359951,"MEAN_MOTION_DOT":0.00000607,"MEAN_MOTION_DDOT":0},{"OBJECT_NAME":"IRIDIUM 33 DEB","OBJECT_ID":"1997-051HW","EPOCH":"2026-09-11T18:42:29.842848","MEAN_MOTION":14.40930098,"ECCENTRICITY":0.00060895,"INCLINATION":86.3584,"RA_OF_ASC_NODE":278.9987,"ARG_OF_PERICENTER":44.6612,"MEAN_ANOMALY":315.5077,"EPHEMERIS_TYPE":0,"CLASSIFICATION_TYPE":"U","NORAD_CAT_ID":34529,"ELEMENT_SET_NO":999,"REV_AT_EPOCH":92073,"BSTAR":0.00010175016,"MEAN_MOTION_DOT":0.00000346,"MEAN_MOTION_DDOT":0},{"OBJECT_NAME":"IRIDIUM 33 DEB","OBJECT_ID":"1997-051JF","EPOCH":"2026-09-11T17:45:05.453280","MEAN_MOTION":14.43886028,"ECCENTRICITY":0.00361953,"INCLINATION":86.2716,"RA_OF_ASC_NODE":245.8106,"ARG_OF_PERICENTER":137.5628,"MEAN_ANOMALY":278.7011,"EPHEMERIS_TYPE":0,"CLASSIFICATION_TYPE":"U","NORAD_CAT_ID":34538,"ELEMENT_SET_NO":999,"REV_AT_EPOCH":91694,"BSTAR":0.00033660184,"MEAN_MOTION_DOT":0.00001177,"MEAN_MOTION_DDOT":0},{"OBJECT_NAME":"IRIDIUM 33 DEB","OBJECT_ID":"1997-051JH","EPOCH":"2026-09-11T19:18:32.580000","MEAN_MOTION":14.80432933,"ECCENTRICITY":0.00124918,"INCLINATION":86.3141,"RA_OF_ASC_NODE":182.2039,"ARG_OF_PERICENTER":310.5912,"MEAN_ANOMALY":103.1047,"EPHEMERIS_TYPE":0,"CLASSIFICATION_TYPE":"U","NORAD_CAT_ID":34540,"ELEMENT_SET_NO":999,"REV_AT_EPOCH":93055,"BSTAR":0.00085869086,"MEAN_MOTION_DOT":0.00006595,"MEAN_MOTION_DDOT":0},{"OBJECT_NAME":"IRIDIUM 33 DEB","OBJECT_ID":"1997-051JZ","EPOCH":"2026-09-11T17:22:41.939328","MEAN_MOTION":14.1514967,"ECCENTRICITY":0.01658636,"INCLINATION":86.3992,"RA_OF_ASC_NODE":171.4405,"ARG_OF_PERICENTER":155.938,"MEAN_ANOMALY":204.9672,"EPHEMERIS_TYPE":0,"CLASSIFICATION_TYPE":"U","NORAD_CAT_ID":34648,"ELEMENT_SET_NO":999,"REV_AT_EPOCH":88818,"BSTAR":0.00063150245,"MEAN_MOTION_DOT":0.00001419,"MEAN_MOTION_DDOT":0},{"OBJECT_NAME":"IRIDIUM 33 DEB","OBJECT_ID":"1997-051KC","EPOCH":"2026-09-11T19:00:00.022752","MEAN_MOTION":14.29216459,"ECCENTRICITY":0.01314138,"INCLINATION":86.283,"RA_OF_ASC_NODE":23.9109,"ARG_OF_PERICENTER":44.8049,"MEAN_ANOMALY":316.3665,"EPHEMERIS_TYPE":0,"CLASSIFICATION_TYPE":"U","NORAD_CAT_ID":34651,"ELEMENT_SET_NO":999,"REV_AT_EPOCH":89792,"BSTAR":0.00094866337,"MEAN_MOTION_DOT":0.00002664,"MEAN_MOTION_DDOT":0},{"OBJECT_NAME":"IRIDIUM 33 DEB","OBJECT_ID":"1997-051KD","EPOCH":"2026-09-11T08:27:42.837696","MEAN_MOTION":14.64085592,"ECCENTRICITY":0.00304493,"INCLINATION":86.3309,"RA_OF_ASC_NODE":218.3721,"ARG_OF_PERICENTER":84.3948,"MEAN_ANOMALY":67.8233,"EPHEMERIS_TYPE":0,"CLASSIFICATION_TYPE":"U","NORAD_CAT_ID":34652,"ELEMENT_SET_NO":999,"REV_AT_EPOCH":92470,"BSTAR":0.00046967352,"MEAN_MOTION_DOT":0.00002505,"MEAN_MOTION_DDOT":0},{"OBJECT_NAME":"IRIDIUM 33 DEB","OBJECT_ID":"1997-051KM","EPOCH":"2026-09-11T19:59:19.433184","MEAN_MOTION":14.5639555,"ECCENTRICITY":0.0009926,"INCLINATION":86.3722,"RA_OF_ASC_NODE":278.1864,"ARG_OF_PERICENTER":157.1021,"MEAN_ANOMALY":17.2734,"EPHEMERIS_TYPE":0,"CLASSIFICATION_TYPE":"U","NORAD_CAT_ID":34690,"ELEMENT_SET_NO":999,"REV_AT_EPOCH":92067,"BSTAR":0.00047532716,"MEAN_MOTION_DOT":0.0000213,"MEAN_MOTION_DDOT":0},{"OBJECT_NAME":"IRIDIUM 33 DEB","OBJECT_ID":"1997-051KT","EPOCH":"2026-09-11T23:14:30.051168","MEAN_MOTION":14.81817304,"ECCENTRICITY":0.00458046,"INCLINATION":86.1769,"RA_OF_ASC_NODE":258.3971,"ARG_OF_PERICENTER":302.4194,"MEAN_ANOMALY":85.8514,"EPHEMERIS_TYPE":0,"CLASSIFICATION_TYPE":"U","NORAD_CAT_ID":34696,"ELEMENT_SET_NO":999,"REV_AT_EPOCH":90699,"BSTAR":0.0023950623,"MEAN_MOTION_DOT":0.00019318,"MEAN_MOTION_DDOT":0}]